Terminal Aerodrome Forecast
Issued by NWS Upton, NY

Home | Current Version | Previous Version | Text Only | Print | Product List | Glossary On
Versions: 1 2 3 4 5 6 7 8 9 10 11 12 13 14 15 16 17 18 19 20 21 22 23 24 25 26 27 28
791
FTUS41 KOKX 120520
TAFLGA
TAF
KLGA 120520Z 1206/1306 30015G23KT P6SM FEW060
     FM121000 29010KT P6SM SKC
     FM121600 24009KT P6SM FEW040 BKN130
     FM130300 26009KT P6SM FEW035 BKN040=

USA.gov is the U.S. government's official web portal to all federal, state and local government web resources and services.